Weather History for LTAG - May, 2013

Change the Weather History Date:

Sunday, May 5, 2013

  Actual Average Record
Temperature  
Mean Temperature 75 °F -  
Max Temperature 90 °F 84 °F 95 °F (2003)
Min Temperature 60 °F 62 °F 46 °F (2005)
Cooling Degree Days 10    
Growing Degree Days 25 (Base 50)    
Moisture  
Dew Point 62 °F    
Average Humidity 70    
Maximum Humidity 100    
Minimum Humidity 28    
Precipitation  
Precipitation 0.00 in - - ()
Sea Level Pressure  
Sea Level Pressure 29.86 in    
Wind  
Wind Speed 5 mph ()    
Max Wind Speed 10 mph    
Max Gust Speed -    
Visibility 6.0 miles    
Events      
Averages and records for this station are not official NWS values.
T = Trace of Precipitation, MM = Missing Value Source: Averaged Metar Reports

Daily Weather History Graph

Daily Weather History Graph

Search for Another Location

Airport or City:

Trip Planner

Search our weather history database for the weather conditions in past years. The results will help you decide how hot, cold, wet, or windy it might be!

Date:

Astronomy

May. 05, 2013 Rise Set
Actual Time 5:39 AM EEST 7:30 PM EEST
Civil Twilight 5:11 AM EEST 7:59 PM EEST
Nautical Twilight 4:37 AM EEST 8:33 PM EEST
Astronomical Twilight 4:00 AM EEST 9:09 PM EEST
Moon 2:52 AM EEST (5/5) 3:14 PM EEST (5/5)
Length of Visible Light 14h 47m
Length of Day
13h 51m
Waning Crescent, 21% of the Moon is Illuminated
May 5
Waning Crescent
May 10
New
May 18
First Quarter
May 25
Full
May 31
Last Quarter

Hourly Weather History & Observations

Time (EEST) Temp. Heat Index Dew Point Humidity Pressure Visibility Wind Dir Wind Speed Gust Speed Precip Events Conditions
12:20 AM 64.4 °F - 62.6 °F 94% 29.89 in - North 5.8 mph - N/A   Clear
12:50 AM 64.4 °F - 62.6 °F 94% 29.89 in - NNE 8.1 mph - N/A   Clear
1:20 AM 62.6 °F - 62.6 °F 100% 29.89 in - NNE 4.6 mph - N/A   Clear
1:50 AM 62.6 °F - 60.8 °F 94% 29.89 in - North 4.6 mph - N/A   Clear
2:20 AM 62.6 °F - 60.8 °F 94% 29.86 in - North 8.1 mph - N/A   Clear
2:50 AM 60.8 °F - 60.8 °F 100% 29.86 in - North 8.1 mph - N/A   Clear
3:00 AM 61 °F - 60 °F 97% 29.85 in 6 mi North 8.1 mph - -  
3:20 AM 62.6 °F - 60.8 °F 94% 29.86 in - North 6.9 mph - N/A   Clear
3:50 AM 60.8 °F - 60.8 °F 100% 29.86 in - North 9.2 mph - N/A   Clear
4:20 AM 62.6 °F - 60.8 °F 94% 29.86 in - North 5.8 mph - N/A   Clear
4:50 AM 60.8 °F - 60.8 °F 100% 29.86 in - Variable 2.3 mph - N/A   Clear
5:20 AM 62.6 °F - 60.8 °F 94% 29.86 in - NNW 5.8 mph - N/A   Clear
5:50 AM 60.8 °F - 60.8 °F 100% 29.86 in - NW 3.5 mph - N/A   Clear
6:20 AM 64.4 °F - 62.6 °F 94% 29.86 in - Variable 2.3 mph - N/A   Clear
6:50 AM 64.4 °F - 64.4 °F 100% 29.86 in - North 3.5 mph - N/A   Clear
7:20 AM 66.2 °F - 64.4 °F 94% 29.86 in - North 4.6 mph - N/A   Clear
7:50 AM 69.8 °F - 66.2 °F 88% 29.89 in - East 2.3 mph - N/A   Clear
8:20 AM 73.4 °F - 64.4 °F 73% 29.89 in - Variable 2.3 mph - N/A   Clear
8:50 AM 75.2 °F - 64.4 °F 69% 29.89 in - Calm Calm - N/A   Clear
9:00 AM 74 °F - 64 °F 64% 29.88 in 6 mi Calm Calm - -  
9:20 AM 77.0 °F - 62.6 °F 61% 29.89 in - West 2.3 mph - N/A   Clear
9:50 AM 78.8 °F - 60.8 °F 54% 29.89 in - South 3.5 mph - N/A   Clear
10:20 AM 80.6 °F 81.5 °F 60.8 °F 51% 29.86 in - WSW 3.5 mph - N/A   Clear
10:50 AM 80.6 °F 81.5 °F 60.8 °F 51% 29.86 in - WSW 4.6 mph - N/A   Clear
11:20 AM 82.4 °F 82.9 °F 60.8 °F 48% 29.86 in - South 4.6 mph - N/A   Clear
11:50 AM 84.2 °F 83.8 °F 59.0 °F 42% 29.86 in - West 3.5 mph - N/A   Clear
12:20 PM 84.2 °F 84.4 °F 60.8 °F 45% 29.86 in - WSW 5.8 mph - N/A   Clear
12:50 PM 86.0 °F 85.4 °F 59.0 °F 40% 29.86 in - SW 5.8 mph - N/A   Clear
1:20 PM 86.0 °F 85.4 °F 59.0 °F 40% 29.86 in - SW 5.8 mph - N/A   Clear
1:50 PM 87.8 °F 87.6 °F 60.8 °F 40% 29.83 in - SSW 6.9 mph - N/A   Clear
2:20 PM 89.6 °F 88.1 °F 57.2 °F 33% 29.83 in - WSW 8.1 mph - N/A   Clear
2:50 PM 89.6 °F 89.5 °F 60.8 °F 38% 29.83 in - SW 4.6 mph - N/A   Clear
3:00 PM 90 °F - 61 °F 28% 29.83 in 6 mi SW 4.6 mph - -  
3:20 PM 89.6 °F 89.5 °F 60.8 °F 38% 29.83 in - SSW 10.4 mph - N/A   Clear
3:50 PM 87.8 °F 87.1 °F 59.0 °F 38% 29.83 in - SW 10.4 mph - N/A   Clear
4:20 PM 87.8 °F 87.1 °F 59.0 °F 38% 29.80 in - SSW 10.4 mph - N/A   Clear
4:50 PM 87.8 °F 87.1 °F 59.0 °F 38% 29.83 in - SW 10.4 mph - N/A   Clear
5:20 PM 86.0 °F 84.9 °F 57.2 °F 37% 29.83 in - SW 10.4 mph - N/A   Clear
5:50 PM 84.2 °F 83.5 °F 57.2 °F 40% 29.80 in - SSW 10.4 mph - N/A   Clear
6:20 PM 82.4 °F 82.0 °F 57.2 °F 42% 29.80 in - SSW 10.4 mph - N/A   Clear
6:50 PM 80.6 °F 80.8 °F 57.2 °F 45% 29.80 in - South 6.9 mph - N/A   Clear
7:20 PM 77.0 °F - 62.6 °F 61% 29.83 in - SSE 8.1 mph - N/A   Clear
7:50 PM 75.2 °F - 64.4 °F 69% 29.83 in - SSE 6.9 mph - N/A   Clear
8:20 PM 73.4 °F - 66.2 °F 78% 29.86 in - SSE 8.1 mph - N/A   Clear
8:50 PM 71.6 °F - 68.0 °F 88% 29.86 in - SE 5.8 mph - N/A   Clear
9:00 PM 72 °F - 68 °F 82% 29.85 in 6 mi SE 5.8 mph - -   Clear
9:20 PM 71.6 °F - 68.0 °F 88% 29.86 in - SSE 5.8 mph - N/A   Clear
9:50 PM 71.6 °F - 68.0 °F 88% 29.89 in - NNE 2.3 mph - N/A   Clear
10:20 PM 71.6 °F - 68.0 °F 88% 29.89 in - ENE 2.3 mph - N/A   Clear
10:50 PM 69.8 °F - 68.0 °F 94% 29.86 in - NE 3.5 mph - N/A   Clear
11:20 PM 66.2 °F - 64.4 °F 94% 29.89 in - North 5.8 mph - N/A   Clear
11:50 PM 64.4 °F - 62.6 °F 94% 29.89 in - North 6.9 mph - N/A   Clear